sat.trackr.live / text

‹ back to catalog

STARLINK-33787

NORAD 63519 · 2025-071AC

PAYLOAD ACTIVE UNKNOWN

§ Identity

Operator
Country
US
Launch date
2025-04-07
Launch site
AFWTR
Launch vehicle
Mass (kg)
RCS (m²)

Purposes: comms

External: N2YO · Heavens-Above · Gunter

§ Orbital elements

Epoch: 2026-09-20T10:48:54.669600Z

Period
93.85 min
Inclination
53.1589°
Eccentricity
0.0001193
Mean motion
15.34404633 rev/d
Perigee alt
461.9 km
Apogee alt
463.5 km
Semi-major
6,840.8 km
B*
3.0197e-4
RAAN
315.6060°
Arg perigee
88.7693°
Mean anomaly
271.3446°
Rev number
8,221

§ Raw data

STARLINK-337871 63519U 25071AC  26263.45063275  .00009841  00000+0  30197-3 0  99942 63519  53.1589 315.6060 0001193  88.7693 271.3446 15.34404633 82216

JSON: /api/v1/satellites/63519 · /tle

For live sub-satellite position, see the globe view (requires WebGL).

§ Visibility from observer

Set your observer location to see the next 7 days of passes ≥ 10°. The values pass through the URL so the page stays shareable.

No JS? Fill the form by hand. The geolocation button needs JavaScript.